Regional Weather Roundup
Issued by NWS Kansas City/Pleasant Hill, MO

Current Version | Previous Version | Text Only | Print | Product List | Glossary On
Versions: 1 2 3 4 5 6 7 8 9 10 11 12 13 14 15 16 17 18 19 20 21 22 23 24 25 26 27 28 29 30 31 32 33 34 35 36 37 38 39 40 41 42 43 44 45 46 47 48 49 50
000
ASUS43 KEAX 281611
RWREAX

WEATHER ROUNDUP FOR EASTERN KANSAS AND NORTHWEST MISSOURI
NATIONAL WEATHER SERVICE KANSAS CITY/PLEASANT HILL MO
1100 AM CDT SAT MAR 28 2015

KSZ040-057-103>105-MOZ028-029-037-043-281700-
...KANSAS CITY METROPOLITAN AREA...

CITY           SKY/WX    TMP DP  RH WIND       PRES   REMARKS
K.C. INTL      CLOUDY    42  30  62 E18       30.18R WCI  34
K.C. DOWNTOWN  CLOUDY    43  30  60 SE12      30.19R
LEES SUMMIT    PTSUNNY   41  30  65 E10       30.19S WCI  35
OLATHE - IXD   PTSUNNY   43  28  55 E14G22    30.17R
OLATHE - OJC   CLOUDY    42  29  59 E16       30.16R WCI  34
LAWRENCE       SUNNY     47  27  45 SE21G26   30.16R

$$

MOZ001>008-011>017-020>025-030>033-038>040-044>046-053-054-281700-
...NORTHERN AND CENTRAL MISSOURI...

CITY           SKY/WX    TMP DP  RH WIND       PRES   REMARKS
ST. JOSEPH     CLOUDY    42  30  62 SE15      30.20R WCI  34
MOSBY            N/A     41  30  65 SE13      30.22S WCI  34
WARRENSBURG    PTSUNNY   41  32  70 E13       30.22S WCI  34
WHITEMAN AFB   PTSUNNY   39  31  72 SE12      30.22R WCI  32
CLINTON        PTSUNNY   39  32  75 SE10      30.23R WCI  32
SEDALIA        CLOUDY    40  31  70 SE13      30.24S WCI  32
WARSAW         NOT AVBL
CHILLICOTHE      N/A     39  29  67 SE9       30.26R WCI  33
MOBERLY        CLOUDY    37  19  48 SE12      30.28R WCI  30
KIRKSVILLE     CLOUDY    39  19  44 SE9       30.28R WCI  33

$$

MOZ041-047>049-056>058-063>065-088>090-097-281700-
...EASTERN AND SOUTHERN MISSOURI...

CITY           SKY/WX    TMP DP  RH WIND       PRES   REMARKS
ST. LOUIS INTL MOSUNNY   37  17  44 SE8       30.34R WCI  31
SPIRIT OF STL  MOSUNNY   38  16  40 VRB7      30.32R WCI  33
COLUMBIA       CLOUDY    37  27  67 SE8       30.27R WCI  31
JEFFERSON CITY CLOUDY    37  27  67 SE6       30.29R WCI  32
MEXICO         CLOUDY    39  25  56 SE8       30.29R WCI  34
HANNIBAL       SUNNY     41  12  30 E10       30.31S WCI  35
ROLLA          CLOUDY    35  29  78 MISG      30.25S
LEBANON        PTSUNNY   34  30  86 SE8       30.24S WCI  27
OSAGE BEACH    CLOUDY    36  30  80 SE10      30.26S WCI  28
SPRINGFIELD    LGT RAIN  40  25  55 SE17      30.18S WCI  31
BRANSON        CLOUDY    39  32  75 SE13G18   30.21R WCI  32
NEVADA         PTSUNNY   46  28  49 E16G22    30.17F
JOPLIN         MOSUNNY   51  32  48 E13       30.13F
WEST PLAINS    LGT SNOW  32  29  88 SE7       30.28S FOG     WCI  26

$$

IAZ060-094-KSZ022-034>040-054-083-096-NEZ052-066-093-281700-
...KANSAS...SOUTHEAST NEBRASKA AND IOWA...

CITY           SKY/WX    TMP DP  RH WIND       PRES   REMARKS
TOPEKA         SUNNY     48  28  46 E17       30.15R
MANHATTAN      SUNNY     50  31  48 SE8       30.10R
EMPORIA        SUNNY     50  31  48 SE12      30.08R
CHANUTE        SUNNY     52  34  50 E13       30.10S
WICHITA        MOSUNNY   54  39  57 CALM      30.03R
OMAHA          SUNNY     43  26  51 S18       30.17S WCI  35
LINCOLN        SUNNY     42  28  57 SE16      30.15R WCI  34
FALLS CITY     SUNNY     45  29  53 SE18      30.16R
LAMONI         CLOUDY    37  25  61 SE9       30.22S WCI  30
DES MOINES     MOSUNNY   41  12  30 S10G21    30.24F WCI  35

$$




USA.gov is the U.S. government's official web portal to all federal, state and local government web resources and services.